KGSP

Greenville-Spartanburg International Airport

Airport
ICAO code
KGSP
IATA Code
GSP
Summary
ICAO Region
NAM
ICAO Territory
Location

Greer, South Carolina

Serving
Greenville
Elevation
964 ft
Coordinates
34° 53' 45" N , 82° 13' 8" W
KCC
Airport RE
Engineered Materials Arresting System
Metar
KGSP 201453Z 23006KT 10SM -RA BKN012 BKN070 BKN110 25/21 A3016 RMK AO2 RAB46 SLP200 P0000 60000 T02500211 51009

Greenville-Spartanburg International Airport, also known as GSP International Airport or Roger Milliken Field, is located 3 nm south of central Greer; the airport serves Greenville and Spartanburg in the Upstate region of South Carolina, USA.

Airport map

Aerial View

SKYbrary Partners:

Safety knowledge contributed by: